�������l�o���
Date,Time,MP-1(��Sv/h),MP-2(��Sv/h),MP-3(��Sv/h),MP-4(��Sv/h),MP-5(��Sv/h),MP-6(��Sv/h),MP-7(��Sv/h),MP-8(��Sv/h),����,����(m/s),���J
2018/09/25,00:00,0.788,1.187,0.833,1.466,1.066,0.465,0.810,0.765,���k��,4.1,��
2018/09/25,00:10,0.792,1.187,0.832,1.466,1.066,0.465,0.809,0.767,��,3.5,��
2018/09/25,00:20,0.791,1.188,0.833,1.467,1.067,0.466,0.810,0.768,���쐼,2.0,��
2018/09/25,00:30,0.792,1.185,0.832,1.468,1.065,0.465,0.808,0.768,��,2.5,��
2018/09/25,00:40,0.792,1.187,0.834,1.469,1.067,0.465,0.810,0.767,���k��,3.4,��
2018/09/25,00:50,0.791,1.186,0.833,1.468,1.068,0.465,0.810,0.765,��,2.6,��
2018/09/25,01:00,0.792,1.185,0.833,1.467,1.066,0.466,0.809,0.766,��,1.7,��
2018/09/25,01:10,0.791,1.187,0.834,1.465,1.066,0.466,0.810,0.766,��,2.0,��
2018/09/25,01:20,0.791,1.185,0.832,1.464,1.068,0.465,0.808,0.764,���k��,1.7,��
2018/09/25,01:30,0.791,1.187,0.833,1.469,1.066,0.465,0.809,0.765,���k��,2.0,��
2018/09/25,01:40,0.790,1.185,0.832,1.466,1.067,0.465,0.809,0.767,��,3.3,��
2018/09/25,01:50,0.789,1.186,0.834,1.468,1.068,0.466,0.811,0.768,���k��,2.3,��
2018/09/25,02:00,0.790,1.184,0.831,1.468,1.066,0.464,0.808,0.768,�k��,2.9,��
2018/09/25,02:10,0.792,1.187,0.833,1.465,1.068,0.465,0.809,0.767,�k��,3.1,��
2018/09/25,02:20,0.791,1.186,0.831,1.467,1.065,0.466,0.810,0.767,�k�k��,2.9,��
2018/09/25,02:30,0.792,1.186,0.830,1.468,1.068,0.465,0.808,0.767,�k��,5.3,��
2018/09/25,02:40,0.790,1.187,0.833,1.470,1.067,0.464,0.809,0.768,�k�k��,6.1,��
2018/09/25,02:50,0.791,1.187,0.834,1.467,1.067,0.465,0.810,0.767,�k�k��,5.8,��
2018/09/25,03:00,0.791,1.185,0.834,1.468,1.068,0.465,0.810,0.768,�k�k��,6.9,��
2018/09/25,03:10,0.791,1.185,0.833,1.470,1.066,0.466,0.810,0.766,�k��,6.0,��
2018/09/25,03:20,0.791,1.188,0.834,1.469,1.067,0.464,0.809,0.766,�k��,5.2,��
2018/09/25,03:30,0.791,1.185,0.834,1.470,1.064,0.465,0.810,0.768,�k��,4.8,��
2018/09/25,03:40,0.791,1.186,0.835,1.470,1.065,0.464,0.810,0.769,�k��,5.2,��
2018/09/25,03:50,0.789,1.184,0.833,1.470,1.067,0.463,0.811,0.768,�k��,4.9,��
2018/09/25,04:00,0.790,1.185,0.834,1.470,1.066,0.465,0.809,0.767,�k��,3.5,��
2018/09/25,04:10,0.790,1.187,0.833,1.470,1.067,0.464,0.807,0.766,�k�k��,4.5,��
2018/09/25,04:20,0.791,1.184,0.832,1.468,1.066,0.464,0.809,0.768,�k�k��,3.9,��
2018/09/25,04:30,0.792,1.185,0.834,1.470,1.066,0.465,0.810,0.767,�k�k��,4.0,��
2018/09/25,04:40,0.791,1.185,0.833,1.469,1.065,0.464,0.809,0.769,�k�k��,4.0,��
2018/09/25,04:50,0.792,1.184,0.833,1.471,1.065,0.465,0.809,0.767,�k�k��,4.0,��
2018/09/25,05:00,0.790,1.188,0.833,1.469,1.068,0.465,0.809,0.765,�k�k��,4.4,��
2018/09/25,05:10,0.789,1.185,0.832,1.469,1.069,0.464,0.808,0.767,�k�k��,4.0,��
2018/09/25,05:20,0.789,1.185,0.834,1.468,1.064,0.462,0.809,0.767,�k�k��,4.2,��
2018/09/25,05:30,0.790,1.185,0.835,1.468,1.066,0.464,0.809,0.769,�k�k��,5.0,��
2018/09/25,05:40,0.790,1.184,0.834,1.469,1.066,0.464,0.809,0.768,�k�k��,5.7,��
2018/09/25,05:50,0.791,1.188,0.832,1.469,1.066,0.463,0.810,0.767,�k�k��,7.0,��
2018/09/25,06:00,0.789,1.184,0.832,1.472,1.067,0.464,0.808,0.768,�k�k��,6.8,��
2018/09/25,06:10,0.790,1.185,0.832,1.469,1.066,0.464,0.808,0.768,�k�k��,5.9,��
2018/09/25,06:20,0.790,1.187,0.833,1.469,1.067,0.462,0.808,0.767,�k��,6.8,��
2018/09/25,06:30,0.791,1.185,0.833,1.472,1.067,0.463,0.808,0.766,�k�k��,6.6,��
2018/09/25,06:40,0.790,1.186,0.834,1.470,1.065,0.463,0.809,0.766,�k�k��,7.1,��
2018/09/25,06:50,0.789,1.187,0.832,1.470,1.065,0.464,0.809,0.767,�k�k��,6.7,��
2018/09/25,07:00,0.789,1.185,0.832,1.470,1.066,0.463,0.809,0.767,�k,6.6,��
2018/09/25,07:10,0.791,1.184,0.831,1.470,1.065,0.462,0.809,0.767,�k,5.9,��
2018/09/25,07:20,0.790,1.184,0.832,1.468,1.067,0.462,0.809,0.767,�k,6.2,��
2018/09/25,07:30,0.791,1.183,0.832,1.466,1.067,0.461,0.808,0.766,�k,6.0,��
2018/09/25,07:40,0.789,1.184,0.832,1.469,1.066,0.462,0.808,0.765,�k�k��,5.3,��
2018/09/25,07:50,0.788,1.186,0.832,1.467,1.068,0.462,0.807,0.766,�k,6.7,��
2018/09/25,08:00,0.787,1.183,0.829,1.467,1.065,0.461,0.808,0.766,�k,4.6,��
2018/09/25,08:10,0.787,1.180,0.829,1.468,1.065,0.461,0.806,0.766,�k,6.6,��
2018/09/25,08:20,0.785,1.185,0.830,1.467,1.064,0.461,0.807,0.767,�k,8.4,��
2018/09/25,08:30,0.786,1.182,0.829,1.467,1.064,0.461,0.808,0.765,�k,7.2,��
2018/09/25,08:40,0.788,1.181,0.830,1.467,1.064,0.460,0.808,0.765,�k,6.2,��
2018/09/25,08:50,0.786,1.183,0.829,1.468,1.064,0.461,0.807,0.767,�k,8.7,��
2018/09/25,09:00,0.786,1.182,0.829,1.468,1.063,0.461,0.808,0.766,�k,6.4,��
2018/09/25,09:10,0.787,1.183,0.830,1.468,1.065,0.460,0.809,0.766,�k,8.4,��
2018/09/25,09:20,0.786,1.183,0.829,1.468,1.066,0.461,0.806,0.764,�k,9.0,��
2018/09/25,09:30,0.786,1.182,0.828,1.468,1.065,0.461,0.806,0.765,�k,9.4,��
2018/09/25,09:40,0.787,1.184,0.828,1.468,1.062,0.460,0.807,0.762,�k,9.1,��
2018/09/25,09:50,0.786,1.180,0.828,1.469,1.064,0.461,0.808,0.763,�k,9.4,��
2018/09/25,10:00,0.783,1.184,0.828,1.468,1.063,0.460,0.807,0.764,�k,9.8,��
2018/09/25,10:10,0.787,1.179,0.829,1.470,1.064,0.460,0.808,0.765,�k,9.3,��
2018/09/25,10:20,0.788,1.179,0.827,1.467,1.062,0.459,0.807,0.765,�k,8.8,�L
2018/09/25,10:30,0.789,1.182,0.830,1.470,1.064,0.460,0.807,0.765,�k,7.2,��
2018/09/25,10:40,0.787,1.181,0.827,1.468,1.063,0.459,0.807,0.763,�k,7.6,�L
2018/09/25,10:50,0.787,1.184,0.828,1.469,1.065,0.459,0.805,0.764,�k,7.1,�L
2018/09/25,11:00,0.786,1.185,0.830,1.470,1.063,0.459,0.807,0.764,�k,7.8,�L
2018/09/25,11:10,0.787,1.184,0.829,1.470,1.065,0.459,0.806,0.765,�k,6.7,�L
2018/09/25,11:20,0.786,1.182,0.829,1.468,1.064,0.458,0.808,0.766,�k,7.4,�L
2018/09/25,11:30,0.789,1.184,0.828,1.470,1.065,0.460,0.808,0.765,�k,7.2,�L
2018/09/25,11:40,0.788,1.185,0.830,1.470,1.066,0.460,0.808,0.766,�k�k��,8.2,�L
2018/09/25,11:50,0.788,1.184,0.832,1.467,1.064,0.461,0.806,0.764,�k,6.8,�L
2018/09/25,12:00,0.786,1.183,0.830,1.471,1.067,0.460,0.806,0.766,�k�k��,6.1,�L
2018/09/25,12:10,0.784,1.174,0.829,1.465,1.060,0.461,0.803,0.765,�k�k��,7.8,�L
2018/09/25,12:20,0.782,1.168,0.826,1.460,1.055,0.461,0.801,0.764,�k�k��,6.7,�L
2018/09/25,12:30,0.781,1.166,0.823,1.458,1.052,0.461,0.803,0.762,�k�k��,7.3,�L
2018/09/25,12:40,0.778,1.164,0.823,1.456,1.049,0.461,0.802,0.760,�k�k��,6.9,�L
2018/09/25,12:50,0.776,1.151,0.817,1.444,1.043,0.459,0.800,0.759,�k��,4.8,�L
2018/09/25,13:00,0.770,1.138,0.810,1.426,1.031,0.456,0.794,0.755,�k,3.7,�L
2018/09/25,13:10,0.767,1.135,0.809,1.424,1.030,0.456,0.792,0.754,�k��,1.9,�L
2018/09/25,13:20,0.768,1.131,0.809,1.417,1.029,0.456,0.795,0.755,�k�k��,5.9,�L
2018/09/25,13:30,0.762,1.115,0.801,1.408,1.020,0.454,0.792,0.752,�k�k��,5.3,�L
2018/09/25,13:40,0.760,1.115,0.801,1.404,1.018,0.453,0.790,0.748,�k,7.0,�L
2018/09/25,13:50,0.759,1.116,0.800,1.401,1.015,0.453,0.788,0.748,�k,8.7,�L
2018/09/25,14:00,0.762,1.122,0.806,1.406,1.016,0.455,0.789,0.750,�k�k��,8.1,�L
2018/09/25,14:10,0.766,1.127,0.805,1.412,1.021,0.455,0.790,0.751,�k�k��,7.7,�L
2018/09/25,14:20,0.766,1.128,0.805,1.414,1.021,0.454,0.791,0.751,�k�k��,7.7,�L
2018/09/25,14:30,0.764,1.125,0.804,1.411,1.017,0.454,0.789,0.751,�k�k��,7.4,�L
2018/09/25,14:40,0.762,1.120,0.803,1.406,1.013,0.454,0.788,0.750,�k�k��,5.9,�L
2018/09/25,14:50,0.758,1.116,0.799,1.400,1.008,0.453,0.785,0.746,�k�k��,7.7,�L
2018/09/25,15:00,0.758,1.114,0.800,1.401,1.011,0.452,0.783,0.746,�k�k��,6.1,�L
2018/09/25,15:10,0.758,1.118,0.800,1.398,1.010,0.453,0.785,0.748,�k�k��,7.6,�L
2018/09/25,15:20,0.758,1.116,0.799,1.402,1.008,0.452,0.785,0.748,�k�k��,7.1,�L
2018/09/25,15:30,0.757,1.115,0.800,1.400,1.009,0.452,0.786,0.748,�k�k��,7.1,�L
2018/09/25,15:40,0.758,1.121,0.796,1.403,1.010,0.450,0.785,0.750,�k�k��,6.5,�L
2018/09/25,15:50,0.757,1.117,0.799,1.407,1.009,0.451,0.786,0.749,�k�k��,6.4,�L
2018/09/25,16:00,0.758,1.117,0.796,1.404,1.005,0.451,0.785,0.745,�k�k��,6.3,�L
2018/09/25,16:10,0.757,1.115,0.797,1.402,1.007,0.451,0.784,0.749,�k�k��,6.6,�L
2018/09/25,16:20,0.759,1.118,0.799,1.405,1.007,0.451,0.785,0.745,�k�k��,6.4,�L
2018/09/25,16:30,0.759,1.123,0.798,1.404,1.007,0.451,0.784,0.750,�k�k��,6.1,�L
2018/09/25,16:40,0.759,1.119,0.796,1.409,1.007,0.449,0.786,0.747,�k�k��,6.0,�L
2018/09/25,16:50,0.757,1.119,0.799,1.405,1.005,0.450,0.784,0.745,�k�k��,6.2,�L
2018/09/25,17:00,0.754,1.113,0.795,1.399,1.002,0.449,0.784,0.745,�k,5.4,�L
2018/09/25,17:10,0.749,1.109,0.793,1.394,0.997,0.447,0.780,0.745,�k�k��,5.0,�L
2018/09/25,17:20,0.751,1.110,0.795,1.394,0.999,0.448,0.782,0.743,�k�k��,5.2,�L
2018/09/25,17:30,0.752,1.113,0.794,1.397,0.999,0.449,0.781,0.744,�k�k��,5.4,�L
2018/09/25,17:40,0.753,1.112,0.794,1.398,0.999,0.449,0.782,0.746,�k�k��,5.6,�L
2018/09/25,17:50,0.754,1.115,0.797,1.399,1.002,0.451,0.783,0.745,�k�k��,5.6,�L
2018/09/25,18:00,0.754,1.115,0.796,1.399,1.000,0.451,0.783,0.746,�k�k��,6.2,�L
2018/09/25,18:10,0.756,1.117,0.796,1.403,1.001,0.450,0.783,0.745,�k�k��,6.2,�L
2018/09/25,18:20,0.757,1.120,0.798,1.405,1.003,0.451,0.783,0.747,�k�k��,6.5,�L
2018/09/25,18:30,0.757,1.120,0.799,1.406,1.004,0.450,0.784,0.747,�k�k��,6.7,�L
2018/09/25,18:40,0.759,1.120,0.799,1.404,1.005,0.451,0.785,0.745,�k�k��,7.0,�L
2018/09/25,18:50,0.757,1.122,0.800,1.408,1.007,0.451,0.784,0.746,�k�k��,7.0,�L
2018/09/25,19:00,0.759,1.124,0.800,1.408,1.007,0.450,0.785,0.748,�k�k��,7.2,�L
2018/09/25,19:10,0.759,1.127,0.799,1.411,1.008,0.450,0.785,0.748,�k�k��,7.5,�L
2018/09/25,19:20,0.760,1.127,0.798,1.412,1.008,0.450,0.783,0.750,�k�k��,7.0,�L
2018/09/25,19:30,0.759,1.126,0.799,1.410,1.010,0.451,0.784,0.748,�k�k��,7.9,�L
2018/09/25,19:40,0.759,1.127,0.800,1.410,1.011,0.450,0.784,0.750,�k�k��,7.1,�L
2018/09/25,19:50,0.760,1.128,0.798,1.412,1.013,0.451,0.786,0.749,�k�k��,6.7,�L
2018/09/25,20:00,0.759,1.128,0.801,1.413,1.011,0.451,0.787,0.751,�k��,8.1,�L
2018/09/25,20:10,0.761,1.129,0.799,1.417,1.012,0.450,0.787,0.751,�k�k��,6.9,�L
2018/09/25,20:20,0.760,1.129,0.800,1.417,1.013,0.450,0.785,0.751,�k�k��,5.9,�L
2018/09/25,20:30,0.760,1.129,0.801,1.417,1.013,0.452,0.785,0.751,�k�k��,6.7,�L
2018/09/25,20:40,0.762,1.129,0.799,1.418,1.012,0.453,0.787,0.751,�k�k��,6.1,�L
2018/09/25,20:50,0.760,1.130,0.801,1.418,1.012,0.451,0.786,0.751,�k�k��,7.1,��
2018/09/25,21:00,0.761,1.131,0.801,1.418,1.014,0.451,0.788,0.752,�k��,7.9,��
2018/09/25,21:10,0.760,1.132,0.801,1.418,1.013,0.453,0.788,0.751,�k��,8.1,��
2018/09/25,21:20,0.762,1.132,0.802,1.420,1.014,0.452,0.787,0.753,�k�k��,7.4,��
2018/09/25,21:30,0.764,1.133,0.802,1.420,1.016,0.452,0.788,0.751,�k��,7.8,��
2018/09/25,21:40,0.761,1.132,0.801,1.421,1.016,0.451,0.788,0.751,�k��,8.6,��
2018/09/25,21:50,0.761,1.131,0.801,1.421,1.016,0.452,0.788,0.752,�k��,7.5,��
2018/09/25,22:00,0.762,1.132,0.803,1.423,1.014,0.451,0.790,0.754,�k�k��,8.1,��
2018/09/25,22:10,0.762,1.134,0.803,1.422,1.016,0.452,0.790,0.753,�k�k��,8.6,��
2018/09/25,22:20,0.763,1.131,0.800,1.423,1.019,0.453,0.787,0.754,�k�k��,8.4,��
2018/09/25,22:30,0.762,1.136,0.801,1.421,1.017,0.451,0.790,0.753,�k�k��,7.8,��
2018/09/25,22:40,0.763,1.134,0.802,1.423,1.018,0.452,0.790,0.754,�k��,7.3,��
2018/09/25,22:50,0.762,1.134,0.804,1.419,1.017,0.452,0.790,0.755,�k��,7.5,��
2018/09/25,23:00,0.762,1.135,0.804,1.424,1.020,0.453,0.789,0.753,�k�k��,7.8,��
2018/09/25,23:10,0.761,1.135,0.802,1.424,1.020,0.452,0.790,0.753,�k�k��,7.8,��
2018/09/25,23:20,0.762,1.134,0.805,1.422,1.022,0.451,0.791,0.756,�k�k��,6.7,��
2018/09/25,23:30,0.762,1.135,0.805,1.424,1.018,0.452,0.789,0.753,�k�k��,7.0,��
2018/09/25,23:40,0.763,1.136,0.806,1.422,1.020,0.451,0.792,0.755,�k�k��,7.9,��
2018/09/25,23:50,0.764,1.138,0.804,1.426,1.020,0.453,0.788,0.755,�k��,8.0,��
